Hourly Data Report for September 13, 2017

All times are specified in Local Standard Time (LST). Add 1 hour to adjust for Daylight Saving Time where and when it is observed.

KUGAARUK CLIMATE
NUNAVUT

68°32'15.060" N
89°47'47.020" W
15.80 m
2303094
71407
NBB

Download Data

Hourly Data (September 2017)
Hourly Data Report for September 13, 2017
Temp Definition
°C
Dew Point Temp Definition
°C
Rel Hum Definition
%
Wind Dir Definition
10's deg

Wind Spd Definition
km/h
Visibility Definition
km
Stn Press Definition
kPa
Hmdx Definition


Wind Chill Definition


Weather Definition


TIME
00:00 -0.8 -1.2 98 1 17   101.50   -6 LegendNANA
01:00 -0.8 -1.2 98 36 13   101.54   -5 LegendNANA
02:00 -0.9 -1.2 98 36 12   101.57   -5 LegendNANA
03:00 -1.0 -1.3 98 35 9   101.60   -4 LegendNANA
04:00 -1.2 -1.6 98 35 8   101.63   -4 LegendNANA
05:00 -1.0 -1.3 98 31 2   101.64   -2 LegendNANA
06:00 -1.0 -1.3 98 5 4   101.66   -2 LegendNANA
07:00 -0.8 -1.2 98 4 6   101.66   -3 LegendNANA
08:00 -0.4 -1.0 96 33 4   101.63   -2 LegendNANA
09:00 0.0 -2.3 85 24 7   101.63   -2 LegendNANA
10:00 1.1 -1.5 83 23 10   101.61     LegendNANA
11:00 1.6 -0.9 84 25 13   101.60     LegendNANA
12:00 0.9 -1.2 86 26 13   101.63     LegendNANA
13:00 0.7 -1.6 85 27 13   101.62     LegendNANA
14:00 0.6 -1.3 87 27 11   101.64     LegendNANA
15:00 0.4 -1.8 85 24 13   101.65     LegendNANA
16:00 0.7 -1.8 83 26 10   101.66     LegendNANA
17:00 0.0 -1.5 90 26 10   101.66   -3 LegendNANA
18:00 -0.5 -1.6 92 26 12   101.66   -4 LegendNANA
19:00 -1.4 -2.3 93 24 6   101.64   -4 LegendNANA
20:00 -1.3 -2.2 94 25 4   101.60   -3 LegendNANA
21:00 -1.4 -2.2 94 22 3   101.58   -2 LegendNANA
22:00 -2.7 -3.6 94 10 5   101.58   -5 LegendNANA
23:00 -2.1 -2.8 95   0   101.58     LegendNANA

Notes on Data Quality.

Legend

  • E = Estimated
  • M = Missing
  • NA = Not Available
  • ‡ = Partner data that is not subject to review by the National Climate Archives
Date modified: